LKMT Weather Reports


Display with metric or nautical units.
time (UTC)temp
F
wind
direction
speed
MPH
gust
MPH
rain 1hr
in
rain 24hr
in
rain mn
in
humidity
%
barometer
mb
20260904100234 75 230 18.0 0.0 0.00 0.00 0.00 53 1016.0
20260904093230 72 230 20.0 0.0 0.00 0.00 0.00 56 1017.0
20260904092251 73 230 18.0 0.0 0.00 0.00 0.00 53
20260904090235 73 230 18.0 0.0 0.00 0.00 0.00 53 1017.0
20260904083231 70 220 15.0 0.0 0.00 0.00 0.00 60 1018.0
20260904082236 70 220 16.0 0.0 0.00 0.00 0.00 60
20260904080234 70 210 15.0 0.0 0.00 0.00 0.00 60 1018.0
20260904073230 68 230 15.0 0.0 0.00 0.00 0.00 64 1018.0
20260904072436 68 230 16.0 0.0 0.00 0.00 0.00 64
20260904070234 66 230 14.0 0.0 0.00 0.00 0.00 68 1018.0
20260904063231 64 230 9.0 0.0 0.00 0.00 0.00 72 1018.0
20260904062235 64 230 12.0 0.0 0.00 0.00 0.00 67
20260904060233 64 230 9.0 0.0 0.00 0.00 0.00 72 1018.0
20260904053224 63 230 10.0 0.0 0.00 0.00 0.00 72 1017.0
20260904052218 64 230 12.0 0.0 0.00 0.00 0.00 67
20260904050232 63 230 12.0 0.0 0.00 0.00 0.00 72 1017.0
20260904043224 63 230 10.0 0.0 0.00 0.00 0.00 72 1017.0
20260904042619 64 230 9.0 0.0 0.00 0.00 0.00 67
20260904040238 63 230 9.0 0.0 0.00 0.00 0.00 72 1017.0
20260904033224 63 220 13.0 0.0 0.00 0.00 0.00 72 1017.0
20260904032218 63 230 12.0 0.0 0.00 0.00 0.00 72
20260904030235 61 230 8.0 0.0 0.00 0.00 0.00 77 1018.0
20260904023224 64 210 9.0 0.0 0.00 0.00 0.00 67 1017.0
20260904022220 64 220 12.0 0.0 0.00 0.00 0.00 63
20260904020235 63 220 10.0 0.0 0.00 0.00 0.00 72 1017.0
20260904013223 64 220 15.0 0.0 0.00 0.00 0.00 67 1018.0
20260904012536 66 220 14.0 0.0 0.00 0.00 0.00 63
20260904010236 64 220 13.0 0.0 0.00 0.00 0.00 67 1018.0
20260904003223 64 230 14.0 0.0 0.00 0.00 0.00 67 1018.0
20260904002235 66 230 14.0 0.0 0.00 0.00 0.00 63
20260904000235 64 220 13.0 0.0 0.00 0.00 0.00 67 1018.0
20260903233224 66 230 12.0 0.0 0.00 0.00 0.00 63 1018.0
20260903232235 66 220 14.0 0.0 0.00 0.00 0.00 59
20260903230237 64 220 13.0 0.0 0.00 0.00 0.00 67 1018.0
20260903223223 64 220 9.0 0.0 0.00 0.00 0.00 67 1018.0
20260903222635 63 230 7.0 0.0 0.00 0.00 0.00 72
20260903220236 63 230 6.0 0.0 0.00 0.00 0.00 72 1018.0
20260903213224 63 250 6.0 0.0 0.00 0.00 0.00 72 1018.0
20260903212235 64 250 5.0 0.0 0.00 0.00 0.00 67
20260903210236 63 240 6.0 0.0 0.00 0.00 0.00 72 1018.0
20260903203224 64 180 7.0 0.0 0.00 0.00 0.00 67 1018.0
20260903202235 66 180 7.0 0.0 0.00 0.00 0.00 63
20260903200235 66 190 8.0 0.0 0.00 0.00 0.00 63 1018.0
20260903193224 66 180 6.0 0.0 0.00 0.00 0.00 63 1018.0
20260903192436 68 200 5.0 0.0 0.00 0.00 0.00 56
20260903190238 66 210 6.0 0.0 0.00 0.00 0.00 59 1018.0
20260903183231 68 220 6.0 0.0 0.00 0.00 0.00 56 1018.0
20260903182235 68 230 5.0 0.0 0.00 0.00 0.00 56
20260903180236 68 240 5.0 0.0 0.00 0.00 0.00 56 1018.0
20260903173230 70 270 6.0 0.0 0.00 0.00 0.00 52 1018.0
20260903172248 70 240 7.0 0.0 0.00 0.00 0.00 52
20260903170235 68 250 6.0 0.0 0.00 0.00 0.00 52 1018.0
20260903163231 72 270 8.0 0.0 0.00 0.00 0.00 46 1018.0
20260903162529 73 260 9.0 0.0 0.00 0.00 0.00 40
20260903160235 73 260 9.0 0.0 0.00 0.00 0.00 43 1018.0
20260903153230 75 260 9.0 0.0 0.00 0.00 0.00 41 1018.0
20260903152237 73 260 12.0 0.0 0.00 0.00 0.00 46
20260903150233 73 260 10.0 0.0 0.00 0.00 0.00 43 1018.0
20260903143231 73 240 10.0 0.0 0.00 0.00 0.00 49 1018.0
20260903142206 73 260 12.0 0.0 0.00 0.00 0.00 46
20260903140235 75 260 12.0 0.0 0.00 0.00 0.00 38 1018.0
20260903133231 75 260 7.0 0.0 0.00 0.00 0.00 44 1018.0
20260903132405 75 0 5.0 0.0 0.00 0.00 0.00 41
20260903130236 75 310 6.0 0.0 0.00 0.00 0.00 41 1018.0
20260903123231 73 350 3.0 0.0 0.00 0.00 0.00 49 1018.0
20260903122204 73 360 7.0 0.0 0.00 0.00 0.00 49
20260903120234 72 360 6.0 0.0 0.00 0.00 0.00 53 1019.0
20260903113231 73 240 12.0 0.0 0.00 0.00 0.00 49 1018.0
20260903112155 72 220 12.0 0.0 0.00 0.00 0.00 53
20260903110234 72 220 13.0 0.0 0.00 0.00 0.00 49 1019.0
20260903103224 73 210 13.0 0.0 0.00 0.00 0.00 49 1019.0
20260903102558 73 200 12.0 0.0 0.00 0.00 0.00 49